sat.trackr.live / text

‹ back to catalog

STARLINK-34259

NORAD 65368 · 2025-190T

PAYLOAD ACTIVE UNKNOWN

§ Identity

Operator
Country
US
Launch date
2025-08-28
Launch site
AFETR
Launch vehicle
Mass (kg)
RCS (m²)

Purposes: comms

External: N2YO · Heavens-Above · Gunter

§ Orbital elements

Epoch: 2026-09-20T16:56:05.068608Z

Period
93.85 min
Inclination
53.1597°
Eccentricity
0.0001149
Mean motion
15.34406666 rev/d
Perigee alt
461.9 km
Apogee alt
463.5 km
Semi-major
6,840.8 km
B*
6.2829e-4
RAAN
338.7596°
Arg perigee
71.2392°
Mean anomaly
288.8735°
Rev number
5,966

§ Raw data

STARLINK-342591 65368U 25190T   26263.70561422  .00020915  00000+0  62829-3 0  99972 65368  53.1597 338.7596 0001149  71.2392 288.8735 15.34406666 59668

JSON: /api/v1/satellites/65368 · /tle

For live sub-satellite position, see the globe view (requires WebGL).

§ Visibility from observer

Set your observer location to see the next 7 days of passes ≥ 10°. The values pass through the URL so the page stays shareable.

No JS? Fill the form by hand. The geolocation button needs JavaScript.